| time (UTC) | temp C | wind direction | speed KPH | gust KPH | rain 1hr cm | rain 24hr cm | rain mn cm | humidity % | barometer mb |
| 20260504081300 | 6 | 0 | 0.0 | 0.0 | 0.00 | 0.00 | 0.00 | 70 | 944.6 |
| 20260504060107 | 8 | 0 | 0.0 | 1.6 | 0.00 | 0.00 | 0.00 | 58 | 944.6 |
| 20260504050336 | 10 | 219 | 3.2 | 9.7 | 0.00 | 0.00 | 0.00 | 54 | 944.6 |
| 20260504045335 | 10 | 0 | 0.0 | 3.2 | 0.00 | 0.00 | 0.00 | 54 | 944.6 |
| 20260504044336 | 10 | 0 | 0.0 | 6.4 | 0.00 | 0.00 | 0.00 | 54 | 944.6 |
| 20260504043335 | 10 | 0 | 0.0 | 11.3 | 0.00 | 0.00 | 0.00 | 55 | 944.6 |
| 20260504041941 | 10 | 0 | 0.0 | 6.4 | 0.00 | 0.00 | 0.00 | 54 | 944.6 |
| 20260504040941 | 9 | 0 | 0.0 | 3.2 | 0.00 | 0.00 | 0.00 | 55 | 944.6 |
| 20260504035941 | 9 | 0 | 0.0 | 4.8 | 0.00 | 0.00 | 0.00 | 56 | 944.6 |
| 20260504034941 | 9 | 0 | 0.0 | 4.8 | 0.00 | 0.00 | 0.00 | 56 | 944.6 |
| 20260504033546 | 9 | 0 | 0.0 | 0.0 | 0.00 | 0.00 | 0.00 | 56 | 944.6 |
| 20260504032546 | 9 | 0 | 0.0 | 1.6 | 0.00 | 0.00 | 0.00 | 56 | 944.6 |
| 20260504031545 | 9 | 0 | 0.0 | 1.6 | 0.00 | 0.00 | 0.00 | 56 | 944.6 |
| 20260504030546 | 9 | 0 | 0.0 | 0.0 | 0.00 | 0.00 | 0.00 | 55 | 944.6 |
| 20260504025153 | 10 | 0 | 0.0 | 0.0 | 0.00 | 0.00 | 0.00 | 54 | 944.6 |
| 20260504024153 | 10 | 0 | 0.0 | 0.0 | 0.00 | 0.00 | 0.00 | 54 | 944.6 |
| 20260504023153 | 10 | 0 | 0.0 | 0.0 | 0.00 | 0.00 | 0.00 | 53 | 944.6 |
| 20260504022153 | 10 | 0 | 0.0 | 1.6 | 0.00 | 0.00 | 0.00 | 53 | 944.6 |
| 20260504020750 | 10 | 0 | 0.0 | 0.0 | 0.00 | 0.00 | 0.00 | 54 | 944.6 |
| 20260504015751 | 10 | 0 | 0.0 | 0.0 | 0.00 | 0.00 | 0.00 | 52 | 944.6 |
| 20260504014750 | 10 | 0 | 0.0 | 1.6 | 0.00 | 0.00 | 0.00 | 51 | 944.6 |
| 20260504013750 | 11 | 0 | 0.0 | 0.0 | 0.00 | 0.00 | 0.00 | 51 | 944.6 |
| 20260504012345 | 11 | 0 | 0.0 | 0.0 | 0.00 | 0.00 | 0.00 | 49 | 944.6 |
| 20260504011345 | 11 | 0 | 0.0 | 3.2 | 0.00 | 0.00 | 0.00 | 49 | 944.6 |
| 20260504010345 | 11 | 0 | 0.0 | 0.0 | 0.00 | 0.00 | 0.00 | 48 | 944.6 |
| 20260504005345 | 12 | 0 | 0.0 | 0.0 | 0.00 | 0.00 | 0.00 | 47 | 944.6 |
| 20260504003941 | 12 | 0 | 0.0 | 1.6 | 0.00 | 0.00 | 0.00 | 46 | 944.6 |
| 20260504002940 | 12 | 0 | 0.0 | 0.0 | 0.00 | 0.00 | 0.00 | 46 | 944.6 |
| 20260504001940 | 12 | 0 | 0.0 | 0.0 | 0.00 | 0.00 | 0.00 | 45 | 944.6 |
| 20260504000940 | 13 | 0 | 0.0 | 0.0 | 0.00 | 0.00 | 0.00 | 44 | 944.6 |
| 20260503235541 | 13 | 0 | 0.0 | 4.8 | 0.00 | 0.00 | 0.00 | 42 | 944.6 |
| 20260503234542 | 14 | 0 | 0.0 | 8.0 | 0.00 | 0.00 | 0.00 | 41 | 944.6 |
| 20260503233541 | 14 | 0 | 0.0 | 6.4 | 0.00 | 0.00 | 0.00 | 40 | 944.6 |
| 20260503232542 | 15 | 228 | 4.8 | 14.5 | 0.00 | 0.00 | 0.00 | 39 | 944.6 |
| 20260503231134 | 15 | 263 | 1.6 | 14.5 | 0.00 | 0.00 | 0.00 | 38 | 944.6 |
| 20260503230135 | 15 | 242 | 9.7 | 22.5 | 0.00 | 0.00 | 0.00 | 38 | 944.6 |
| 20260503225135 | 15 | 269 | 6.4 | 22.5 | 0.00 | 0.00 | 0.00 | 38 | 944.6 |
| 20260503224134 | 15 | 222 | 1.6 | 17.7 | 0.00 | 0.00 | 0.00 | 38 | 944.6 |
| 20260503222813 | 15 | 214 | 1.6 | 17.7 | 0.00 | 0.00 | 0.00 | 37 | 944.6 |
| 20260503221814 | 15 | 259 | 8.0 | 24.1 | 0.00 | 0.00 | 0.00 | 37 | 944.6 |
| 20260503220813 | 15 | 317 | 6.4 | 41.8 | 0.00 | 0.00 | 0.00 | 38 | 944.6 |
| 20260503215814 | 15 | 301 | 4.8 | 16.1 | 0.00 | 0.00 | 0.00 | 37 | 944.6 |
| 20260503214813 | 15 | 271 | 3.2 | 27.4 | 0.00 | 0.00 | 0.00 | 38 | 944.6 |
| 20260503213813 | 15 | 316 | 11.3 | 22.5 | 0.00 | 0.00 | 0.00 | 36 | 944.6 |
| 20260503212411 | 15 | 278 | 9.7 | 20.9 | 0.00 | 0.00 | 0.00 | 37 | 944.6 |
| 20260503211410 | 15 | 309 | 6.4 | 27.4 | 0.00 | 0.00 | 0.00 | 36 | 944.6 |
| 20260503210411 | 15 | 280 | 6.4 | 19.3 | 0.00 | 0.00 | 0.00 | 37 | 944.6 |
| 20260503205410 | 15 | 283 | 1.6 | 22.5 | 0.00 | 0.00 | 0.00 | 38 | 944.6 |
| 20260503204006 | 14 | 277 | 8.0 | 27.4 | 0.00 | 0.00 | 0.00 | 37 | 944.6 |
| 20260503203006 | 14 | 241 | 16.1 | 29.0 | 0.00 | 0.00 | 0.00 | 36 | 944.6 |
| 20260503202005 | 15 | 303 | 8.0 | 20.9 | 0.00 | 0.00 | 0.00 | 38 | 944.6 |
| 20260503201006 | 14 | 228 | 17.7 | 40.2 | 0.00 | 0.00 | 0.00 | 40 | 944.6 |
| 20260503195600 | 14 | 242 | 11.3 | 33.8 | 0.00 | 0.00 | 0.00 | 39 | 944.6 |
| 20260503194601 | 13 | 262 | 14.5 | 41.8 | 0.00 | 0.00 | 0.00 | 39 | 944.6 |
| 20260503193601 | 13 | 282 | 8.0 | 54.7 | 0.00 | 0.00 | 0.00 | 40 | 944.6 |
| 20260503192601 | 13 | 298 | 22.5 | 48.3 | 0.00 | 0.00 | 0.00 | 40 | 944.6 |
| 20260503191154 | 13 | 272 | 11.3 | 40.2 | 0.00 | 0.00 | 0.00 | 42 | 944.6 |
| 20260503190153 | 13 | 316 | 6.4 | 41.8 | 0.00 | 0.00 | 0.00 | 40 | 944.6 |
| 20260503185154 | 13 | 275 | 12.9 | 40.2 | 0.00 | 0.00 | 0.00 | 42 | 944.6 |
| 20260503184153 | 12 | 286 | 12.9 | 33.8 | 0.00 | 0.00 | 0.00 | 41 | 944.6 |
| 20260503182749 | 12 | 337 | 40.2 | 59.5 | 0.00 | 0.00 | 0.00 | 41 | 944.6 |
| 20260503181749 | 12 | 304 | 16.1 | 59.5 | 0.00 | 0.00 | 0.00 | 42 | 944.6 |
| 20260503180749 | 12 | 299 | 17.7 | 46.7 | 0.00 | 0.00 | 0.00 | 41 | 944.6 |
| 20260503175749 | 12 | 240 | 12.9 | 30.6 | 0.00 | 0.00 | 0.00 | 42 | 944.6 |
| 20260503174404 | 11 | 294 | 11.3 | 43.5 | 0.00 | 0.00 | 0.00 | 42 | 944.6 |
| 20260503173404 | 12 | 267 | 20.9 | 51.5 | 0.00 | 0.00 | 0.00 | 42 | 944.6 |
| 20260503172404 | 12 | 330 | 29.0 | 54.7 | 0.00 | 0.00 | 0.00 | 41 | 944.6 |
| 20260503171404 | 12 | 323 | 12.9 | 24.1 | 0.00 | 0.00 | 0.00 | 42 | 944.6 |
| 20260503150149 | 9 | 345 | 24.1 | 49.9 | 0.00 | 0.00 | 0.00 | 54 | 944.6 |
| 20260503130937 | 7 | 331 | 11.3 | 30.6 | 0.00 | 0.00 | 0.00 | 63 | 944.6 |